カタログに戻る

COSMOS 1109 DEB

LostHEO
NORAD 32980·DEBRIS·🇷🇺 Russia

打ち上げ Jun 27, 1979 から Plesetsk Cosmodrome

Loading…

次のパス (今後24時間)

TLE

古いSource: Space-Track

元期: Apr 28, 2011, 21:09 UTC

1 32980U 79058V   11118.88169350  .00000187  00000-0  10000-3 0  9993
2 32980  73.3361  17.4861 5793763 318.6580   9.5698  1.95058211 50672

AllMySatでCOSMOS 1109 DEBをリアルタイム追跡

Download on the App Store